TimeCST,TemperatureF,Dew PointF,Humidity,Sea Level PressureIn,VisibilityMPH,Wind Direction,Wind SpeedMPH,Gust SpeedMPH,PrecipitationIn,Events,Conditions,WindDirDegrees,DateUTC
12:54 AM,36.0,30.9,82,30.40,10.0,Calm,Calm,-,N/A,,Clear,0,2012-11-16 06:54:00
1:54 AM,35.1,32.0,89,30.41,10.0,Calm,Calm,-,N/A,,Clear,0,2012-11-16 07:54:00
2:54 AM,34.0,30.9,89,30.41,10.0,Calm,Calm,-,N/A,,Clear,0,2012-11-16 08:54:00
3:54 AM,34.0,30.9,89,30.41,10.0,Calm,Calm,-,N/A,,Clear,0,2012-11-16 09:54:00
4:54 AM,34.0,30.9,89,30.40,10.0,Calm,Calm,-,N/A,,Clear,0,2012-11-16 10:54:00
5:54 AM,33.1,30.0,89,30.42,10.0,Calm,Calm,-,N/A,,Clear,0,2012-11-16 11:54:00
6:54 AM,33.1,28.9,85,30.44,10.0,Calm,Calm,-,N/A,,Clear,0,2012-11-16 12:54:00
7:54 AM,36.0,30.9,82,30.45,10.0,Calm,Calm,-,N/A,,Clear,0,2012-11-16 13:54:00
8:54 AM,41.0,35.1,79,30.45,10.0,East,4.6,-,N/A,,Clear,100,2012-11-16 14:54:00
9:54 AM,50.0,39.0,66,30.45,7.0,ESE,4.6,-,N/A,,Clear,110,2012-11-16 15:54:00
10:54 AM,55.9,36.0,47,30.44,10.0,SE,5.8,-,N/A,,Clear,130,2012-11-16 16:54:00
11:54 AM,59.0,35.1,41,30.41,9.0,SSE,4.6,-,N/A,,Clear,150,2012-11-16 17:54:00
12:54 PM,61.0,33.1,35,30.40,10.0,SE,5.8,-,N/A,,Clear,130,2012-11-16 18:54:00
1:54 PM,62.1,30.9,31,30.37,10.0,SSE,6.9,-,N/A,,Clear,160,2012-11-16 19:54:00
2:54 PM,62.1,32.0,32,30.36,10.0,South,8.1,-,N/A,,Clear,180,2012-11-16 20:54:00
3:54 PM,61.0,33.1,35,30.36,10.0,SSE,6.9,-,N/A,,Clear,160,2012-11-16 21:54:00
4:54 PM,55.0,35.1,47,30.36,10.0,SSE,5.8,-,N/A,,Clear,160,2012-11-16 22:54:00
5:54 PM,54.0,33.1,45,30.36,10.0,SE,3.5,-,N/A,,Clear,140,2012-11-16 23:54:00
6:54 PM,51.1,32.0,48,30.37,10.0,ESE,4.6,-,N/A,,Clear,110,2012-11-17 00:54:00
7:54 PM,48.0,32.0,54,30.37,10.0,SE,4.6,-,N/A,,Clear,140,2012-11-17 01:54:00
8:54 PM,46.9,32.0,56,30.37,10.0,SE,5.8,-,N/A,,Clear,140,2012-11-17 02:54:00
9:54 PM,45.0,32.0,60,30.36,10.0,SE,4.6,-,N/A,,Clear,140,2012-11-17 03:54:00
10:54 PM,43.0,32.0,65,30.36,10.0,SE,4.6,-,N/A,,Clear,140,2012-11-17 04:54:00
11:54 PM,42.1,33.1,70,30.36,10.0,SSE,6.9,-,N/A,,Clear,150,2012-11-17 05:54:00